| time (UTC) | temp F | wind direction | speed MPH | gust MPH | rain 1hr in | rain 24hr in | rain mn in | humidity % | barometer mb |
| 20260831174003 | 84 | 259 | 2.0 | 14.0 | 0.00 | 0.00 | 0.02 | 74 | 1016.4 |
| 20260831173002 | 83 | 203 | 4.0 | 10.0 | 0.00 | 0.00 | 0.02 | 75 | 1016.7 |
| 20260831172003 | 82 | 220 | 2.0 | 5.0 | 0.00 | 0.00 | 0.02 | 80 | 1016.8 |
| 20260831170002 | 79 | 235 | 5.0 | 9.0 | 0.00 | 0.00 | 0.02 | 83 | 1017.2 |
| 20260831165501 | 79 | 258 | 3.0 | 5.0 | 0.00 | 0.00 | 0.02 | 84 | 1017.1 |
| 20260831164502 | 78 | 277 | 1.0 | 6.0 | 0.00 | 0.00 | 0.02 | 85 | 1017.3 |
| 20260831163502 | 77 | 278 | 1.0 | 2.0 | 0.00 | 0.00 | 0.02 | 86 | 1017.7 |
| 20260831162502 | 76 | 296 | 0.0 | 3.0 | 0.00 | 0.00 | 0.02 | 88 | 1017.7 |
| 20260831161002 | 75 | 261 | 2.0 | 4.0 | 0.00 | 0.00 | 0.02 | 87 | 1017.5 |
| 20260831153502 | 75 | 211 | 1.0 | 4.0 | 0.00 | 0.00 | 0.02 | 85 | 1017.7 |
| 20260831152502 | 75 | 240 | 1.0 | 4.0 | 0.00 | 0.00 | 0.02 | 88 | 1017.5 |
| 20260831152002 | 74 | 279 | 2.0 | 5.0 | 0.05 | 0.00 | 0.02 | 88 | 1017.8 |
| 20260831151502 | 74 | 212 | 3.0 | 4.0 | 0.05 | 0.00 | 0.02 | 89 | 1017.8 |
| 20260831151001 | 74 | 303 | 0.0 | 3.0 | 0.00 | 0.00 | 0.01 | 88 | 1018.0 |
| 20260831150502 | 74 | 219 | 1.0 | 3.0 | 0.00 | 0.00 | 0.01 | 89 | 1018.0 |
| 20260831145502 | 74 | 30 | 1.0 | 3.0 | 0.00 | 0.00 | 0.01 | 89 | 1018.0 |
| 20260831144502 | 74 | 216 | 1.0 | 4.0 | 0.00 | 0.00 | 0.01 | 89 | 1018.0 |
| 20260831143502 | 74 | 287 | 0.0 | 3.0 | 0.00 | 0.00 | 0.01 | 90 | 1018.0 |
| 20260831143002 | 73 | 268 | 1.0 | 3.0 | 0.00 | 0.00 | 0.01 | 91 | 1018.1 |
| 20260831140502 | 72 | 258 | 1.0 | 2.0 | 0.07 | 0.00 | 0.01 | 88 | 1017.8 |
| 20260831140001 | 72 | 257 | 0.0 | 3.0 | 0.00 | 0.00 | 0.00 | 88 | 1017.8 |
| 20260831134501 | 72 | 248 | 2.0 | 3.0 | 0.00 | 0.00 | 0.00 | 89 | 1018.0 |
| 20260831133002 | 72 | 275 | 0.0 | 3.0 | 0.00 | 0.00 | 0.00 | 89 | 1017.9 |
| 20260831132502 | 72 | 261 | 2.0 | 3.0 | 0.00 | 0.00 | 0.00 | 89 | 1018.0 |
| 20260831131502 | 71 | 280 | 1.0 | 2.0 | 0.00 | 0.00 | 0.00 | 90 | 1017.6 |
| 20260831125002 | 70 | 234 | 4.0 | 5.0 | 0.00 | 0.00 | 0.00 | 92 | 1017.2 |
| 20260831124001 | 70 | 246 | 2.0 | 4.0 | 0.00 | 0.00 | 0.00 | 92 | 1017.1 |
| 20260831123502 | 70 | 260 | 2.0 | 4.0 | 0.00 | 0.00 | 0.00 | 93 | 1017.0 |
| 20260831115002 | 71 | 234 | 0.0 | 0.0 | 0.00 | 0.00 | 0.00 | 89 | 1016.7 |
| 20260831113001 | 72 | 268 | 0.0 | 3.0 | 0.00 | 0.00 | 0.00 | 87 | 1016.6 |
| 20260831111502 | 71 | 258 | 0.0 | 4.0 | 0.00 | 0.00 | 0.00 | 88 | 1016.4 |
| 20260831110002 | 71 | 266 | 1.0 | 4.0 | 0.00 | 0.00 | 0.00 | 88 | 1016.3 |
| 20260831105502 | 71 | 269 | 3.0 | 4.0 | 0.00 | 0.00 | 0.00 | 87 | 1016.4 |
| 20260831103502 | 72 | 197 | 3.0 | 4.0 | 0.00 | 0.00 | 0.00 | 86 | 1016.3 |
| 20260831102502 | 72 | 241 | 2.0 | 5.0 | 0.00 | 0.00 | 0.00 | 86 | 1016.4 |
| 20260831101502 | 72 | 201 | 4.0 | 6.0 | 0.00 | 0.00 | 0.00 | 85 | 1016.4 |
| 20260831101001 | 72 | 257 | 3.0 | 6.0 | 0.00 | 0.00 | 0.00 | 86 | 1016.3 |
| 20260831100002 | 72 | 261 | 2.0 | 6.0 | 0.00 | 0.00 | 0.00 | 86 | 1016.2 |
| 20260831094502 | 72 | 251 | 3.0 | 6.0 | 0.00 | 0.00 | 0.00 | 86 | 1016.2 |
| 20260831092001 | 72 | 234 | 2.0 | 4.0 | 0.00 | 0.00 | 0.00 | 88 | 1016.4 |
| 20260831090001 | 72 | 271 | 1.0 | 3.0 | 0.00 | 0.00 | 0.00 | 90 | 1016.8 |
| 20260831085502 | 72 | 193 | 3.0 | 4.0 | 0.00 | 0.00 | 0.00 | 90 | 1016.2 |
| 20260831085004 | 72 | 249 | 2.0 | 4.0 | 0.00 | 0.00 | 0.00 | 90 | 1016.3 |
| 20260831084502 | 72 | 243 | 3.0 | 3.0 | 0.00 | 0.00 | 0.00 | 90 | 1016.5 |
| 20260831084002 | 72 | 198 | 3.0 | 4.0 | 0.00 | 0.00 | 0.00 | 90 | 1016.4 |
| 20260831083502 | 72 | 224 | 3.0 | 5.0 | 0.00 | 0.00 | 0.00 | 90 | 1016.5 |
| 20260831081002 | 72 | 251 | 3.0 | 4.0 | 0.00 | 0.00 | 0.00 | 89 | 1016.3 |
| 20260831075502 | 73 | 252 | 3.0 | 4.0 | 0.00 | 0.00 | 0.00 | 88 | 1016.4 |
| 20260831074503 | 73 | 158 | 4.0 | 6.0 | 0.00 | 0.00 | 0.00 | 89 | 1016.5 |
| 20260831074002 | 72 | 241 | 3.0 | 5.0 | 0.00 | 0.00 | 0.00 | 89 | 1016.3 |
| 20260831073001 | 73 | 240 | 2.0 | 6.0 | 0.00 | 0.00 | 0.00 | 89 | 1016.4 |
| 20260831072502 | 73 | 208 | 3.0 | 6.0 | 0.00 | 0.00 | 0.00 | 88 | 1016.4 |
| 20260831071504 | 73 | 234 | 3.0 | 4.0 | 0.00 | 0.00 | 0.00 | 88 | 1016.5 |
| 20260831070502 | 73 | 274 | 1.0 | 4.0 | 0.00 | 0.00 | 0.00 | 88 | 1016.5 |
| 20260831065501 | 73 | 251 | 2.0 | 4.0 | 0.00 | 0.00 | 0.00 | 88 | 1016.5 |
| 20260831055002 | 73 | 226 | 4.0 | 6.0 | 0.00 | 0.00 | 0.00 | 92 | 1016.3 |
| 20260831054501 | 74 | 250 | 4.0 | 7.0 | 0.00 | 0.00 | 0.00 | 91 | 1016.1 |
| 20260831053502 | 74 | 236 | 3.0 | 4.0 | 0.00 | 0.00 | 0.00 | 91 | 1016.3 |
| 20260831053002 | 74 | 200 | 3.0 | 5.0 | 0.00 | 0.00 | 0.00 | 91 | 1016.4 |
| 20260831052503 | 74 | 204 | 3.0 | 4.0 | 0.00 | 0.00 | 0.00 | 92 | 1016.6 |
| 20260831051502 | 74 | 227 | 3.0 | 4.0 | 0.00 | 0.00 | 0.00 | 92 | 1016.5 |
| 20260831051001 | 74 | 282 | 0.0 | 4.0 | 0.00 | 0.00 | 0.00 | 92 | 1016.6 |
| 20260831050502 | 74 | 248 | 1.0 | 3.0 | 0.00 | 0.00 | 0.00 | 92 | 1016.5 |
| 20260831045501 | 74 | 228 | 2.0 | 4.0 | 0.00 | 0.00 | 0.14 | 92 | 1016.6 |
| 20260831045002 | 74 | 199 | 3.0 | 6.0 | 0.00 | 0.00 | 0.14 | 92 | 1016.7 |
| 20260831044001 | 75 | 210 | 3.0 | 6.0 | 0.00 | 0.00 | 0.14 | 92 | 1016.8 |
| 20260831043502 | 75 | 231 | 3.0 | 4.0 | 0.00 | 0.00 | 0.14 | 92 | 1016.8 |
| 20260831042002 | 75 | 218 | 4.0 | 5.0 | 0.00 | 0.00 | 0.14 | 93 | 1017.0 |
| 20260831040002 | 74 | 253 | 3.0 | 3.0 | 0.00 | 0.00 | 0.14 | 95 | 1017.1 |
| 20260831035502 | 74 | 270 | 2.0 | 2.0 | 0.00 | 0.00 | 0.14 | 95 | 1017.5 |
| 20260831034502 | 75 | 259 | 2.0 | 3.0 | 0.00 | 0.00 | 0.14 | 94 | 1017.6 |
| 20260831034001 | 75 | 216 | 2.0 | 4.0 | 0.00 | 0.00 | 0.14 | 93 | 1017.5 |
| 20260831033002 | 73 | 277 | 1.0 | 3.0 | 0.00 | 0.00 | 0.14 | 98 | 1017.6 |
| 20260831032502 | 73 | 284 | 0.0 | 0.0 | 0.00 | 0.00 | 0.14 | 99 | 1017.6 |
| 20260831031502 | 74 | 195 | 2.0 | 3.0 | 0.00 | 0.00 | 0.14 | 98 | 1017.4 |
| 20260831031003 | 74 | 232 | 3.0 | 4.0 | 0.00 | 0.00 | 0.14 | 98 | 1017.3 |
| 20260831030002 | 74 | 212 | 2.0 | 5.0 | 0.00 | 0.00 | 0.14 | 98 | 1017.5 |
| 20260831025002 | 74 | 235 | 2.0 | 5.0 | 0.00 | 0.00 | 0.14 | 98 | 1017.6 |
| 20260831024502 | 73 | 277 | 0.0 | 0.0 | 0.00 | 0.00 | 0.14 | 99 | 1017.7 |
| 20260831024001 | 73 | 271 | 1.0 | 2.0 | 0.00 | 0.00 | 0.14 | 98 | 1017.8 |
| 20260831022002 | 74 | 295 | 0.0 | 0.0 | 0.07 | 0.00 | 0.14 | 97 | 1018.3 |
| 20260831021001 | 74 | 272 | 0.0 | 0.0 | 0.00 | 0.00 | 0.13 | 96 | 1017.9 |
| 20260831020502 | 74 | 290 | 1.0 | 2.0 | 0.00 | 0.00 | 0.13 | 96 | 1017.5 |
| 20260831015503 | 75 | 271 | 1.0 | 2.0 | 0.00 | 0.00 | 0.13 | 95 | 1017.8 |
| 20260831015002 | 75 | 276 | 1.0 | 2.0 | 0.00 | 0.00 | 0.13 | 94 | 1017.4 |
| 20260831014002 | 75 | 282 | 0.0 | 2.0 | 0.00 | 0.00 | 0.13 | 94 | 1017.4 |
| 20260831012002 | 76 | 276 | 1.0 | 2.0 | 0.00 | 0.00 | 0.13 | 92 | 1017.3 |
| 20260831011002 | 76 | 283 | 0.0 | 2.0 | 0.00 | 0.00 | 0.13 | 92 | 1017.0 |
| 20260831010002 | 76 | 275 | 1.0 | 4.0 | 0.00 | 0.00 | 0.13 | 92 | 1016.5 |
| 20260831005502 | 75 | 253 | 3.0 | 4.0 | 0.00 | 0.00 | 0.13 | 93 | 1016.6 |
| 20260831005002 | 75 | 247 | 2.0 | 3.0 | 0.00 | 0.00 | 0.13 | 93 | 1016.4 |
| 20260831004002 | 75 | 268 | 1.0 | 4.0 | 0.00 | 0.00 | 0.13 | 94 | 1017.1 |
| 20260831003502 | 75 | 254 | 2.0 | 3.0 | 0.00 | 0.00 | 0.13 | 95 | 1017.1 |
| 20260831002502 | 76 | 292 | 0.0 | 0.0 | 0.00 | 0.00 | 0.13 | 94 | 1017.6 |
| 20260831002002 | 76 | 293 | 0.0 | 0.0 | 0.00 | 0.00 | 0.13 | 93 | 1017.3 |
| 20260831001502 | 76 | 281 | 0.0 | 0.0 | 0.00 | 0.00 | 0.13 | 93 | 1017.3 |
| 20260831001001 | 76 | 283 | 0.0 | 3.0 | 0.00 | 0.00 | 0.13 | 93 | 1017.0 |
| 20260831000502 | 76 | 276 | 0.0 | 3.0 | 0.00 | 0.00 | 0.13 | 93 | 1017.2 |
| 20260830235502 | 76 | 263 | 3.0 | 4.0 | 0.00 | 0.13 | 0.13 | 93 | 1017.1 |
| 20260830235002 | 76 | 233 | 2.0 | 3.0 | 0.00 | 0.13 | 0.13 | 94 | 1017.3 |
| 20260830233002 | 76 | 263 | 0.0 | 0.0 | 0.00 | 0.00 | 0.13 | 94 | 1017.8 |
| 20260830232002 | 77 | 309 | 0.0 | 0.0 | 0.00 | 0.00 | 0.13 | 92 | 1017.8 |
| 20260830231002 | 77 | 276 | 0.0 | 0.0 | 0.00 | 0.00 | 0.13 | 92 | 1018.0 |
| 20260830230502 | 77 | 278 | 0.0 | 0.0 | 0.00 | 0.00 | 0.13 | 91 | 1018.1 |
| 20260830225002 | 78 | 278 | 0.0 | 0.0 | 0.00 | 0.00 | 0.13 | 88 | 1018.2 |
| 20260830224502 | 78 | 279 | 0.0 | 0.0 | 0.00 | 0.00 | 0.13 | 88 | 1017.9 |
| 20260830222502 | 78 | 284 | 0.0 | 2.0 | 0.00 | 0.00 | 0.13 | 88 | 1017.5 |
| 20260830221502 | 78 | 301 | 0.0 | 2.0 | 0.00 | 0.00 | 0.13 | 87 | 1017.4 |
| 20260830215002 | 79 | 303 | 0.0 | 0.0 | 0.00 | 0.00 | 0.13 | 86 | 1017.9 |
| 20260830214502 | 79 | 303 | 0.0 | 0.0 | 0.00 | 0.00 | 0.13 | 83 | 1017.9 |
| 20260830213502 | 80 | 301 | 0.0 | 0.0 | 0.00 | 0.00 | 0.13 | 82 | 1018.1 |
| 20260830211502 | 80 | 299 | 0.0 | 0.0 | 0.00 | 0.00 | 0.13 | 81 | 1018.0 |
| 20260830211002 | 81 | 292 | 0.0 | 0.0 | 0.00 | 0.00 | 0.13 | 82 | 1018.1 |
| 20260830205002 | 79 | 282 | 0.0 | 0.0 | 0.00 | 0.00 | 0.13 | 83 | 1017.9 |
| 20260830204501 | 79 | 290 | 0.0 | 0.0 | 0.00 | 0.00 | 0.13 | 84 | 1017.9 |
| 20260830202502 | 79 | 288 | 2.0 | 3.0 | 0.00 | 0.00 | 0.13 | 83 | 1018.0 |
| 20260830201502 | 79 | 276 | 0.0 | 0.0 | 0.00 | 0.00 | 0.13 | 83 | 1017.8 |
| 20260830200002 | 78 | 285 | 0.0 | 0.0 | 0.00 | 0.00 | 0.13 | 84 | 1018.0 |
| 20260830195502 | 78 | 280 | 0.0 | 0.0 | 0.00 | 0.00 | 0.13 | 85 | 1018.0 |
| 20260830195002 | 77 | 246 | 1.0 | 5.0 | 0.00 | 0.00 | 0.13 | 85 | 1017.9 |
| 20260830193502 | 78 | 276 | 1.0 | 3.0 | 0.00 | 0.00 | 0.13 | 82 | 1017.9 |
| 20260830193002 | 78 | 260 | 2.0 | 4.0 | 0.00 | 0.00 | 0.13 | 81 | 1017.7 |
| 20260830192502 | 78 | 263 | 5.0 | 6.0 | 0.00 | 0.00 | 0.13 | 81 | 1017.6 |
| 20260830185002 | 79 | 246 | 3.0 | 6.0 | 0.00 | 0.00 | 0.13 | 80 | 1017.5 |
| 20260830184002 | 80 | 207 | 2.0 | 9.0 | 0.00 | 0.00 | 0.13 | 79 | 1016.9 |
| 20260830182001 | 80 | 277 | 4.0 | 9.0 | 0.00 | 0.00 | 0.13 | 80 | 1017.2 |
| 20260830181502 | 80 | 187 | 6.0 | 10.0 | 0.00 | 0.00 | 0.13 | 80 | 1017.1 |
| 20260830180502 | 78 | 270 | 5.0 | 7.0 | 0.00 | 0.00 | 0.13 | 80 | 1017.3 |
| 20260830175502 | 78 | 180 | 6.0 | 11.0 | 0.00 | 0.00 | 0.13 | 80 | 1017.4 |
| 20260830175002 | 78 | 205 | 5.0 | 7.0 | 0.00 | 0.00 | 0.13 | 81 | 1017.2 |